This is the latest recevied weather packets stored in our database for station/object KH6DH-13. If no packets are shown the sender has not sent any weather packets the latest 10 day(s).
| Time | Temp. | Humidity | Pressure | Rain* | Wind** | Luminosity | Snow |
|---|---|---|---|---|---|---|---|
| 1788075624 | 25.56° C | - | - | 0 mm | 2.24 m/s, 97° | - | - |
| 1788075023 | 26.11° C | - | - | 0 mm | 1.79 m/s, 208° | - | - |
| 1788074422 | 25.56° C | - | - | 0 mm | 1.79 m/s, 139° | - | - |
| 1788073821 | 25.56° C | - | - | 0 mm | 2.24 m/s, 97° | - | - |
| 1788073220 | 26.11° C | - | - | 0 mm | 3.58 m/s, 32° | - | - |
| 1788072619 | 26.11° C | - | - | 0 mm | 3.13 m/s, 89° | - | - |
| 1788072018 | 26.11° C | - | - | 0 mm | 1.34 m/s, 141° | - | - |
| 1788071417 | 26.11° C | - | - | 0 mm | 1.34 m/s, 253° | - | - |
| 1788070816 | 26.11° C | - | - | 0 mm | 3.13 m/s, 25° | - | - |
| 1788070215 | 26.11° C | - | - | 0 mm | 0.89 m/s, 37° | - | - |
| 1788069614 | 26.11° C | - | - | 0 mm | 3.13 m/s, 359° | - | - |
| 1788069010 | 26.11° C | - | - | 0 mm | 2.68 m/s, 113° | - | - |
| 1788068409 | 26.11° C | - | - | 0 mm | 0.89 m/s, 86° | - | - |
| 1788067808 | 26.11° C | - | - | 0.25 mm | 1.34 m/s, 28° | - | - |
| 1788067207 | 26.11° C | - | - | 0.25 mm | 3.13 m/s, 58° | - | - |
| 1788066606 | 26.11° C | - | - | 0.25 mm | 1.79 m/s, 75° | - | - |
| 1788066001 | 26.11° C | - | - | 0.25 mm | 2.24 m/s, 62° | - | - |
| 1788065400 | 26.67° C | - | - | 0.25 mm | 0.89 m/s, 28° | - | - |
| 1788064799 | 26.67° C | - | - | 0.25 mm | 1.79 m/s, 75° | - | - |
| 1788064198 | 26.67° C | - | - | 0 mm | 0.89 m/s, 34° | - | - |
| 1788063597 | 26.67° C | - | - | 0 mm | 1.79 m/s, 359° | - | - |
| 1788062996 | 27.22° C | - | - | 0 mm | 0.89 m/s, 201° | - | - |
| 1788062395 | 27.78° C | - | - | 0 mm | 2.24 m/s, 267° | - | - |
| 1788061791 | 28.33° C | - | - | 0 mm | 1.34 m/s, 315° | - | - |
| 1788061190 | 28.33° C | - | - | 0 mm | 2.24 m/s, 75° | - | - |
* Rain latest hour (hover to see other rain measurements)
** Current wind speed in m/s (hover to see current wind gust speed)